sat.trackr.live / text

‹ back to catalog

STARLINK-36226

NORAD 67209 · 2025-304T

PAYLOAD ACTIVE UNKNOWN

§ Identity

Operator
Country
US
Launch date
2025-12-17
Launch site
AFWTR
Launch vehicle
Mass (kg)
RCS (m²)

Purposes: comms

External: N2YO · Heavens-Above · Gunter

§ Orbital elements

Epoch: 2026-05-24T22:57:35.201088Z

Period
96.11 min
Inclination
70.0019°
Eccentricity
0.0002910
Mean motion
14.98323554 rev/d
Perigee alt
570.1 km
Apogee alt
574.1 km
Semi-major
6,950.2 km
B*
3.4689e-4
RAAN
342.3671°
Arg perigee
269.3229°
Mean anomaly
90.7597°
Rev number
2,530

§ Raw data

STARLINK-362261 67209U 25304T   26144.95665742  .00004048  00000+0  34689-3 0  99972 67209  70.0019 342.3671 0002910 269.3229  90.7597 14.98323554 25305

JSON: /api/v1/satellites/67209 · /tle

For live sub-satellite position, see the globe view (requires WebGL).

§ Visibility from observer

Set your observer location to see the next 7 days of passes ≥ 10°. The values pass through the URL so the page stays shareable.

No JS? Fill the form by hand. The geolocation button needs JavaScript.